Vorticity
25 21 11 9 20 26 21 12 9 6 5 6 9 14 16 14 11 13 15 14 13 8 5 10 13 14 11 12 20 17 6 3 2 2 3 3 1 -0 -0 -1 1 8
17 22 27 25 17 16 19 17 14 12 8 7 9 10 13 15 14 14 13 13 16 12 7 11 14 13 10 8 10 7 3 5 6 5 3 3 3 5 8 6 6 11
4 5 14 17 8 5 10 9 10 13 11 8 9 10 11 12 13 14 12 11 15 15 11 12 14 13 10 7 8 11 9 7 9 9 6 6 7 8 13 11 9 10
1 -0 0 1 -2 -0 5 6 7 10 12 12 8 8 12 12 10 12 12 11 13 14 14 14 14 12 10 7 8 12 11 8 10 10 6 8 9 8 10 10 9 10
4 5 0 -0 -2 -2 3 8 8 5 10 18 16 11 12 13 11 11 12 11 11 12 14 15 15 12 10 8 5 5 7 8 10 9 7 7 5 3 6 8 9 12
12 10 5 6 5 4 6 12 14 5 1 8 12 10 12 14 12 11 10 9 10 12 11 12 14 14 13 11 6 2 2 4 5 5 7 8 3 2 7 9 10 13
13 9 5 5 7 9 7 13 23 17 6 3 1 1 8 15 14 9 7 8 9 11 10 11 12 12 14 15 14 9 4 3 3 0 3 10 9 7 10 11 11 12
16 17 15 9 8 8 4 7 16 16 11 6 4 3 6 12 14 11 7 5 7 9 11 12 11 11 12 13 16 17 14 12 9 3 -0 5 9 7 7 12 13 9
5 8 14 16 15 13 9 6 4 5 6 6 6 7 9 11 11 12 10 6 6 7 9 11 11 11 11 8 8 10 14 18 20 18 11 4 5 5 5 11 14 6
-7 -15 -10 -2 3 10 17 16 11 6 4 6 8 9 16 18 13 13 12 8 8 8 7 9 10 11 10 7 4 2 5 11 16 22 20 8 4 6 6 9 11 6
-11 -20 -19 -11 -8 -2 8 15 20 18 10 6 6 7 12 8 5 13 14 9 9 7 7 7 7 10 10 7 6 4 6 12 15 19 18 7 1 6 10 11 9 6
-9 -21 -19 -8 -6 -10 -11 -8 0 11 19 19 15 18 22 10 4 11 13 11 8 4 7 8 4 8 10 9 9 7 9 14 14 17 17 8 0 3 10 13 12 7
28 9 -3 -3 -2 -8 -15 -20 -17 -6 8 16 15 18 27 26 18 16 15 14 9 6 9 8 4 2 2 7 10 9 13 14 9 9 14 11 4 4 8 12 16 12
57 50 38 33 32 26 10 -6 -11 -11 -8 1 4 -1 3 13 17 18 15 10 8 7 5 3 3 -3 -9 -3 4 7 13 14 13 14 13 10 9 8 7 7 14 17
47 51 52 51 52 57 53 35 20 11 3 4 8 3 1 4 7 10 8 2 0 0 -2 0 1 -7 -12 -8 -2 9 16 13 15 19 12 9 11 9 4 3 12 20
31 34 40 46 45 51 58 50 42 42 33 18 13 13 13 8 3 3 3 1 -0 -0 1 -1 -8 -9 -2 -1 -2 13 27 19 13 16 14 10 12 9 4 4 11 17
23 24 31 45 47 44 42 29 24 35 39 28 18 13 12 10 7 6 6 6 4 5 7 0 -6 -1 3 -0 4 19 28 19 9 14 15 9 10 11 1 2 15 15
17 17 28 44 48 45 39 24 13 15 23 27 21 9 4 7 10 9 8 9 6 6 7 1 3 7 -1 -2 15 26 23 14 9 14 14 7 10 8 -6 2 23 17
15 16 28 43 47 47 42 27 11 5 10 19 18 10 4 6 8 8 7 8 8 7 10 7 1 -1 1 14 25 24 21 18 14 15 13 7 10 4 -6 10 25 12
18 18 25 31 31 41 51 38 17 7 9 15 14 11 12 10 8 9 7 7 8 9 14 15 4 -7 1 19 20 16 25 28 18 17 17 14 16 7 -2 12 18 5
18 16 23 28 18 21 39 43 35 25 19 18 15 12 15 14 9 10 10 9 11 14 14 11 8 4 7 15 12 11 26 32 21 20 24 22 20 9 -3 5 9 2
18 12 19 28 20 12 18 28 37 37 30 27 21 16 19 17 10 9 11 10 11 13 11 5 5 11 12 12 9 4 15 30 26 21 24 22 18 10 -1 -1 2 0
17 11 12 19 21 17 13 14 23 29 33 34 25 18 23 24 18 15 11 9 10 8 6 6 9 13 12 11 12 5 7 22 26 21 22 18 11 9 5 2 2 1
16 10 7 12 21 22 16 17 19 15 22 33 23 17 26 21 14 19 12 7 12 8 3 8 13 16 13 10 13 9 4 15 23 21 22 17 8 8 9 4 -0 -3
15 10 9 12 22 25 17 19 25 15 13 25 17 14 29 25 14 21 22 16 19 18 12 14 15 14 9 5 9 10 7 15 23 19 18 17 12 12 14 9 4 3
13 10 12 11 19 26 19 17 27 22 13 17 10 5 23 28 15 18 24 19 19 20 18 16 15 14 10 3 5 11 14 21 24 18 16 16 14 15 17 17 15 14
Height
5464 5463 5462 5461 5460 5459 5458 5457 5456 5456 5454 5454 5453 5452 5451 5449 5448 5446 5445 5444 5443 5442 5441 5439 5439 5438 5437 5436 5436 5435 5434 5433 5433 5432 5432 5432 5432 5431 5431 5430 5429 5428
5455 5453 5452 5451 5451 5450 5449 5448 5447 5447 5446 5445 5445 5444 5443 5442 5440 5439 5438 5437 5436 5435 5433 5432 5431 5430 5430 5430 5430 5429 5428 5427 5427 5426 5426 5426 5426 5425 5424 5424 5423 5422
5446 5444 5443 5442 5442 5441 5440 5439 5439 5438 5437 5437 5436 5436 5435 5434 5433 5432 5431 5429 5428 5427 5426 5425 5424 5424 5423 5423 5423 5423 5422 5422 5421 5420 5420 5420 5420 5419 5418 5417 5417 5416
5436 5434 5433 5432 5432 5432 5431 5431 5430 5429 5429 5428 5428 5427 5427 5426 5425 5424 5423 5422 5421 5420 5419 5418 5417 5417 5416 5416 5416 5417 5417 5416 5415 5414 5414 5414 5413 5413 5411 5411 5410 5409
5425 5424 5422 5422 5422 5422 5422 5422 5420 5420 5420 5420 5419 5419 5419 5418 5417 5416 5415 5414 5414 5413 5412 5411 5410 5409 5409 5409 5409 5410 5410 5409 5408 5408 5407 5407 5406 5406 5405 5405 5404 5403
5414 5413 5412 5411 5411 5411 5411 5411 5411 5411 5411 5411 5411 5411 5410 5410 5409 5408 5408 5407 5406 5405 5405 5404 5403 5402 5402 5402 5402 5403 5403 5402 5402 5401 5401 5400 5400 5400 5399 5398 5398 5397
5404 5402 5401 5400 5400 5400 5400 5400 5400 5401 5401 5402 5402 5402 5402 5402 5401 5401 5400 5399 5399 5398 5398 5396 5395 5395 5395 5394 5395 5395 5395 5395 5395 5395 5394 5394 5393 5393 5392 5392 5391 5390
5393 5392 5390 5390 5389 5389 5389 5389 5389 5390 5391 5392 5392 5393 5393 5394 5393 5393 5392 5392 5391 5391 5390 5389 5388 5388 5387 5388 5388 5388 5388 5388 5388 5388 5388 5387 5387 5387 5386 5385 5385 5384
5383 5382 5380 5379 5379 5379 5379 5379 5379 5380 5380 5381 5383 5383 5384 5385 5385 5384 5384 5383 5383 5383 5382 5382 5381 5381 5380 5381 5381 5381 5380 5380 5380 5381 5381 5381 5380 5380 5379 5378 5378 5378
5372 5371 5370 5369 5368 5368 5369 5369 5369 5370 5371 5372 5373 5374 5375 5375 5375 5375 5375 5375 5375 5375 5374 5374 5374 5373 5373 5374 5374 5374 5373 5373 5373 5373 5373 5373 5373 5373 5372 5372 5372 5371
5362 5360 5358 5358 5357 5357 5358 5359 5359 5360 5361 5362 5364 5365 5366 5366 5365 5366 5366 5366 5366 5366 5367 5367 5366 5366 5366 5367 5367 5367 5366 5366 5366 5366 5366 5366 5366 5366 5365 5365 5365 5365
5348 5346 5346 5346 5346 5346 5347 5348 5349 5350 5350 5352 5354 5356 5356 5356 5356 5356 5357 5357 5357 5358 5359 5359 5359 5359 5360 5360 5360 5360 5360 5360 5360 5359 5359 5359 5359 5359 5359 5359 5359 5358
5329 5329 5329 5331 5333 5334 5335 5336 5337 5339 5340 5341 5343 5346 5347 5347 5347 5347 5348 5348 5348 5349 5350 5351 5351 5352 5352 5353 5353 5353 5353 5353 5353 5353 5353 5353 5352 5352 5353 5353 5352 5351
5310 5311 5311 5312 5314 5318 5321 5323 5325 5327 5329 5331 5333 5335 5337 5338 5338 5339 5339 5339 5340 5340 5341 5342 5344 5344 5344 5345 5345 5346 5347 5346 5347 5347 5347 5346 5346 5346 5346 5346 5345 5344
5295 5295 5294 5295 5296 5299 5303 5307 5310 5313 5316 5319 5322 5324 5326 5327 5330 5331 5331 5332 5332 5333 5333 5334 5336 5336 5335 5335 5336 5339 5340 5339 5340 5340 5340 5340 5339 5339 5339 5339 5338 5337
5284 5282 5281 5281 5281 5284 5287 5291 5295 5298 5301 5306 5310 5313 5314 5316 5319 5321 5322 5323 5324 5325 5325 5326 5327 5327 5326 5327 5328 5330 5332 5332 5332 5333 5333 5333 5333 5333 5332 5332 5331 5331
5275 5273 5271 5270 5270 5271 5275 5279 5283 5285 5288 5292 5297 5301 5304 5306 5309 5311 5312 5313 5315 5316 5317 5318 5319 5318 5318 5319 5321 5322 5323 5324 5325 5325 5326 5327 5327 5326 5326 5325 5325 5325
5267 5265 5262 5261 5260 5261 5264 5269 5272 5275 5277 5280 5285 5289 5293 5296 5299 5301 5303 5304 5305 5307 5308 5310 5310 5310 5310 5312 5313 5314 5315 5316 5317 5317 5319 5320 5320 5320 5319 5319 5319 5319
5260 5258 5255 5254 5253 5254 5256 5259 5262 5265 5268 5271 5274 5279 5283 5286 5289 5292 5293 5294 5296 5298 5300 5301 5302 5302 5302 5304 5306 5306 5307 5308 5309 5309 5311 5313 5313 5313 5313 5312 5313 5313
5253 5251 5249 5248 5247 5248 5249 5251 5253 5256 5260 5263 5266 5270 5274 5278 5280 5282 5284 5285 5287 5289 5292 5293 5294 5294 5295 5297 5299 5299 5299 5300 5302 5302 5304 5305 5306 5306 5307 5306 5307 5307
5247 5245 5244 5243 5243 5243 5244 5245 5246 5249 5252 5255 5258 5262 5266 5270 5272 5273 5275 5277 5279 5281 5284 5286 5286 5286 5288 5290 5291 5292 5292 5293 5295 5296 5297 5298 5299 5299 5300 5301 5301 5301
5242 5240 5239 5239 5238 5238 5239 5240 5241 5243 5246 5248 5251 5255 5259 5262 5264 5265 5268 5270 5272 5274 5276 5277 5278 5279 5281 5282 5284 5285 5286 5287 5289 5289 5290 5291 5292 5293 5294 5295 5295 5295
5238 5236 5235 5234 5234 5234 5235 5236 5237 5238 5240 5242 5245 5249 5252 5254 5256 5258 5260 5263 5265 5267 5269 5270 5270 5272 5273 5275 5277 5279 5280 5281 5283 5283 5283 5284 5285 5287 5289 5289 5290 5290
5233 5232 5230 5229 5229 5229 5230 5231 5232 5233 5235 5236 5239 5244 5246 5247 5249 5252 5255 5257 5258 5260 5262 5263 5264 5265 5267 5268 5270 5272 5274 5276 5277 5278 5278 5277 5279 5281 5283 5284 5285 5285
5229 5228 5226 5225 5224 5224 5225 5226 5227 5228 5230 5231 5234 5237 5240 5241 5244 5247 5249 5251 5252 5253 5255 5257 5258 5259 5261 5262 5264 5266 5269 5271 5272 5273 5273 5272 5273 5276 5278 5278 5280 5281
5225 5223 5222 5220 5219 5219 5220 5220 5222 5223 5225 5227 5229 5232 5234 5237 5240 5242 5244 5245 5247 5248 5249 5251 5252 5254 5255 5257 5258 5261 5263 5265 5266 5267 5268 5268 5269 5271 5273 5274 5275 5275